Location: Champseau
(45.8333°N, 1.7667°E)
Time: 03:29:52
(UTC+00:00)

ERS-2 - Pass Details

Date: 18 April 2021
Orbit: 491 x 497 km, 98.6° (Epoch: 10 May)

Event Time Altitude Azimuth Distance (km) Brightness Sun altitude
Rises 19:10:07 0° 15° (NNE) 2,589 5.8 -5.2°
Reaches altitude 10° 19:12:13 10° 17° (NNE) 1,700 4.9 -5.5°
Maximum altitude 19:15:52 75° 103° (ESE) 517 2.0 -6.1°
Drops below altitude 10° 19:19:29 10° 190° (S) 1,682 4.7 -6.7°
Sets 19:21:32 0° 192° (SSW) 2,558 5.6 -7.0°
